Weather in Terney

Russia / Primorsky Krai     45°02′54″N   136°37′02″E
В апреле 2022 года жителям России запретили посещать сайт meteo.paraplan.net по решению Генеральной прокуратуры. Аудитория сайта уменьшилась в 10 раз. Владельцы сайта не видят смысла в поддержке погодного сервера в таких условиях. Сайт будет закрыт в октябре.
temp.,
°C
wind,
m/s
gust,
m/s
humid.,
%
clouds,
%
prec.,
mm/h
press.,
hPa
HPBL,
m
3 october, mon
mon301:00+9w229366 0.0 102145
04:00+10wsw2392100 0.0 101958
07:00+10w229375 0.0 101733
10:00+16ssw127612 0.0 1016307
13:00+19ssw3565100 0.0 1014653
16:00+15sw348778 0.0 1012130
19:00+13sw2295100 0.0 101140
22:00+13wsw2297100 0.6 100932
4 october, tue
tue401:00+13w2298100 1.7 100532
04:00+11nw5889100 2.1 1005448
07:00+5nw61384100 0.0 1006688
10:00+5nw51363100 0.0 1007841
13:00+7nw612365 0.0 10081210
16:00+7nw614390 0.0 10091475
19:00+3nw515543 0.0 10121424
22:00+1nw414591 0.0 10131321
5 october, wed
wed501:00+1nw412613 0.0 10141145
04:000wnw38640 0.0 1015636
07:00−1wnw37630 0.0 1016475
10:00+4nw38390 0.0 10181323
13:00+7nw58300 0.0 10171803
16:00+8nw583128 0.0 10172226
19:00+2wnw24480 0.0 1019395
22:000w335940 0.0 102156
6 october, thu
thu601:000wsw345967 0.0 1021110
04:00−1w33660 0.0 102170
07:00−1w33660 0.0 102368
10:00+6wnw38362 0.0 10231657
13:00+9wnw58284 0.0 10212188
16:00+9wnw582912 0.0 10212415
19:00+3wnw224919 0.0 102339
22:00+1w32567 0.0 102448
7 october, fri
fri701:00+1w335960 0.0 102557
04:00+1wnw335731 0.0 102558
07:00+1wnw335519 0.0 102456
10:00+8wsw123731 0.0 1024487
13:00+11ssw363492 0.0 10222068
16:00+11sw2536100 0.0 10211683
19:00+5wnw225827 0.0 102347
22:00+3nw33645 0.0 102552